This demonstration page uses our WeatherBlox Daily Observations layout. Learn more.

Left ArrowRight Arrow

Hourly Observations for July 20, 2016

Temp ( °F °C ) Dew Point ( °F °C ) Humidity (%) Winds ( mph kmh ) Pressure ( in mb ) Visibility ( mi km ) Precip ( " mm )
12:53 am 00:53 Clear 68 20 65 18.3 90 90 N N/A 30.21 1023 10 16 N/A
1:53 am 01:53 Mostly Cloudy 69 20.6 66 18.9 90 90 N N/A 30.21 1023 10 16 N/A
2:53 am 02:53 Mostly Clear 68 20 65 18.3 90 90 N N/A 30.21 1023 9 14 N/A
3:53 am 03:53 Clear 66 18.9 64 17.8 93 93 N N/A 30.21 1023 9 14 N/A
4:53 am 04:53 Mostly Clear 65 18.3 63 17.2 93 93 N N/A 30.21 1023 8 13 N/A
5:53 am 05:53 Clear with Mist and Fog 65 18.3 63 17.2 93 93 N N/A 30.22 1023 6 10 N/A
6:53 am 06:53 Sunny 65 18.3 63 17.2 93 93 N N/A 30.24 1024 7 11 N/A
7:53 am 07:53 Sunny 71 21.7 67 19.4 87 87 N N/A 30.25 1024 9 14 N/A
8:53 am 08:53 Sunny 77 25 66 18.9 69 69 E 3 6 30.25 1024 10 16 N/A
9:53 am 09:53 Sunny 81 27.2 65 18.3 58 58 E 5 7 30.25 1024 10 16 N/A
10:53 am 10:53 Sunny 85 29.4 63 17.2 48 48 E 7 11 30.23 1024 10 16 N/A
11:53 am 11:53 Sunny 86 30 62 16.7 45 45 S 5 7 30.22 1024 10 16 N/A
12:53 pm 12:53 Sunny 88 31.1 62 16.7 42 42 ESE 5 7 30.22 1023 10 16 N/A
1:53 pm 13:53 Sunny 89 31.7 62 16.7 41 41 undefined N/A 30.22 1023 10 16 N/A
2:53 pm 14:53 Sunny 90 32.2 65 18.3 44 44 SW 5 7 30.19 1022 10 16 N/A
3:53 pm 15:53 Mostly Sunny 90 32.2 66 18.9 45 45 VRB 6 9 30.18 1022 10 16 N/A
4:53 pm 16:53 Sunny 90 32.2 64 17.8 42 42 VRB 5 7 30.17 1022 10 16 N/A
5:53 pm 17:53 Sunny 90 32.2 65 18.3 44 44 NW 5 7 30.15 1021 10 16 N/A
6:53 pm 18:53 Sunny 88 31.1 67 19.4 50 50 N 5 7 30.15 1021 10 16 N/A
7:53 pm 19:53 Sunny 84 28.9 70 21.1 63 63 NNE 3 6 30.14 1021 10 16 N/A
8:53 pm 20:53 Partly Cloudy 80 26.7 70 21.1 71 71 N N/A 30.15 1021 10 16 N/A
9:53 pm 21:53 Clear 75 23.9 68 20 79 79 SSW 5 7 30.15 1021 10 16 N/A
10:53 pm 22:53 Clear 74 23.3 70 21.1 88 88 N N/A 30.17 1022 10 16 N/A
11:53 pm 23:53 Clear 73 22.8 69 20.6 87 87 N N/A 30.17 1022 10 16 N/A

Powered by AerisWeather